Helicity
69 48 69 108 110 80 132 249 236 204 216 215 195 180 155 123 110 110 107 107 111 98 60 41 48 55 48 56 48 48 43 42
78 54 23 73 87 117 95 164 220 245 238 231 189 140 146 117 96 98 116 129 122 114 77 78 79 57 45 48 43 28 23 33
172 132 42 34 64 115 134 141 178 219 247 241 182 132 116 116 136 121 120 133 141 152 136 118 117 117 76 61 65 54 36 45
121 168 144 61 71 94 142 170 169 205 204 247 212 154 118 110 131 114 118 135 149 153 161 145 134 150 140 126 108 77 30 30
185 106 201 143 120 105 104 161 178 193 222 216 216 251 226 186 170 175 169 158 163 162 203 221 216 195 183 184 156 129 94 18
183 84 126 211 154 126 92 108 123 183 213 217 255 214 223 218 173 160 189 204 195 186 197 227 223 210 163 190 175 172 150 112
256 213 123 174 183 173 174 128 116 143 188 185 216 212 197 218 221 208 207 226 246 241 226 229 207 201 184 179 166 143 154 142
438 394 322 250 194 205 212 190 159 100 171 196 187 175 165 159 142 146 144 189 245 224 243 215 204 186 175 173 156 152 120 122
667 569 479 425 429 337 238 218 199 200 110 115 114 108 124 124 118 121 125 119 103 100 122 200 189 187 169 133 140 107 109 125
664 728 706 672 576 540 467 384 337 357 344 275 190 99 115 151 114 118 109 74 107 95 90 102 117 107 106 100 111 91 63 90
765 767 775 781 793 773 733 611 531 535 422 392 305 283 279 241 158 151 142 120 84 96 108 193 208 207 216 197 200 146 162 122
505 626 679 719 808 799 805 790 699 596 493 462 449 363 321 299 376 423 407 333 307 281 304 255 206 187 158 169 118 77 69 202
315 378 370 514 650 708 746 718 723 668 601 530 458 455 399 387 362 330 325 377 389 315 260 180 135 101 110 125 237 170 321 210
160 184 228 285 304 358 543 582 587 603 530 473 479 464 476 468 400 353 289 292 233 267 267 256 290 281 257 237 207 229 182 166
-15 1 142 136 132 134 176 226 242 275 322 369 380 347 346 348 358 407 427 350 307 251 242 244 271 282 262 250 242 277 340 207
-52 -73 -95 -75 27 6 7 17 53 60 108 118 180 190 222 198 197 181 165 170 237 227 198 158 165 184 197 205 206 198 184 194
-12 -28 -38 -55 -77 -66 -47 -25 -5 30 -11 22 -6 1 31 75 163 164 112 118 116 99 132 149 140 108 72 68 88 122 136 156
-1 -6 -24 -29 -40 -24 -33 -32 -31 -32 -30 -19 -6 3 16 -7 -3 20 77 97 59 63 48 45 68 65 53 67 71 74 113 155
7 4 -2 -16 -19 0 -9 -8 -10 -18 -11 -15 -4 6 7 -10 4 33 20 -28 17 52 62 46 53 45 19 30 62 72 74 83
Wind_Speed
72 64 60 55 53 51 53 52 51 48 45 44 48 48 47 39 33 30 27 24 23 22 18 16 14 13 12 13 15 20 25 30
77 66 62 59 57 58 55 51 50 49 50 48 50 50 48 44 39 35 32 30 27 26 23 20 18 17 17 15 17 21 26 30
91 79 67 62 58 57 58 55 49 52 52 51 53 60 62 58 53 49 41 36 33 31 30 26 25 22 21 20 19 24 28 25
98 91 79 69 69 63 59 58 61 53 49 50 56 62 65 60 58 51 44 42 39 37 34 32 29 28 28 27 26 26 32 30
90 86 86 78 75 72 65 62 59 57 53 54 54 54 62 67 63 62 58 52 49 46 43 41 38 37 36 36 33 32 33 37
71 77 77 77 69 71 71 68 65 63 61 61 62 65 64 61 65 67 66 64 61 59 56 52 51 48 47 45 44 40 40 42
54 57 62 64 64 63 67 67 68 64 66 67 67 67 64 65 68 69 68 66 65 64 63 63 60 62 58 55 54 54 51 49
41 45 48 53 54 58 64 72 75 67 65 66 68 68 67 73 75 76 71 69 67 66 66 69 69 68 67 64 60 63 62 60
28 30 33 39 43 43 49 57 66 71 70 71 72 74 76 80 81 79 75 73 70 64 63 66 68 67 68 68 68 62 67 66
25 25 26 29 31 34 35 36 41 46 50 53 62 69 73 78 81 80 77 73 71 66 63 61 63 62 59 60 65 68 66 70
28 26 28 28 28 28 27 26 28 32 34 37 47 53 57 65 71 74 71 74 71 67 63 57 53 50 48 51 57 62 67 71
32 31 30 31 32 33 32 30 31 30 30 33 35 38 41 42 47 56 58 58 58 58 56 52 51 52 53 57 61 63 75 74
37 36 35 35 37 38 37 36 35 36 36 36 37 39 40 41 41 41 41 45 48 52 57 65 67 72 70 71 69 57 76 75
40 41 41 41 42 45 45 43 41 42 42 39 39 39 40 40 42 41 42 42 40 42 49 56 59 62 62 61 63 54 53 53
45 47 49 49 48 48 49 49 49 50 48 46 44 44 44 44 46 48 49 49 47 47 47 48 50 54 58 60 61 62 61 62
47 48 48 48 50 53 56 55 55 54 54 54 54 54 52 50 49 50 51 51 52 53 52 51 50 50 50 53 54 57 63 63
59 57 57 55 53 54 54 56 59 60 60 61 60 60 57 59 60 60 59 60 60 58 59 59 59 57 52 50 52 54 57 60
68 66 64 64 62 61 61 62 62 64 64 64 65 65 68 68 65 66 66 65 64 66 65 63 64 61 58 57 56 56 60 63
68 67 67 66 67 70 71 72 71 71 70 68 69 70 72 73 74 74 76 72 70 70 73 71 69 68 66 66 64 63 63 66
Wind_Direction
260 257 252 248 241 238 236 232 233 234 237 241 247 249 249 247 236 227 222 221 212 207 207 210 206 218 236 256 270 288 294 298
257 258 254 250 246 242 239 239 236 233 236 237 243 242 246 246 244 239 232 230 220 217 218 233 231 227 222 245 270 282 290 297
252 255 255 248 246 242 241 240 235 235 240 241 250 252 255 255 255 254 244 233 227 229 225 229 231 238 247 254 258 282 288 292
251 252 255 252 249 247 244 243 244 242 242 246 250 256 256 255 253 251 241 240 239 233 234 239 241 244 251 253 259 264 282 287
253 254 253 254 254 251 248 248 246 246 242 247 246 248 253 255 255 257 257 251 250 248 248 249 250 255 255 260 262 263 269 279
259 256 257 258 259 254 252 252 250 249 247 249 251 254 258 261 261 260 259 260 257 258 258 258 258 261 266 266 268 264 268 271
266 264 261 263 263 262 257 254 253 251 251 252 253 255 258 260 260 261 263 264 264 260 260 261 263 265 266 269 270 271 271 273
276 272 270 268 270 267 264 259 258 257 255 256 256 259 261 262 263 264 265 267 266 267 265 265 265 266 267 270 271 272 274 275
296 295 288 281 278 280 276 271 263 263 260 260 261 263 263 263 264 266 268 269 270 271 270 268 268 267 266 268 271 274 273 275
321 324 316 312 304 298 293 289 282 274 269 267 267 265 266 264 265 268 270 270 271 271 270 269 267 268 269 269 270 274 276 277
328 328 337 333 332 327 327 324 311 299 291 285 279 277 276 274 272 273 273 271 270 270 269 268 266 266 267 272 278 281 279 279
323 324 331 333 333 334 337 334 331 324 317 306 298 296 293 292 289 286 281 280 276 272 267 265 265 267 271 273 277 281 280 281
330 320 328 329 330 325 327 329 330 326 322 318 313 309 307 302 303 302 299 293 288 282 276 272 273 277 279 278 277 280 281 279
318 320 322 321 323 324 319 315 321 318 322 320 317 314 311 308 304 305 307 304 303 301 293 286 284 285 286 285 285 284 279 277
321 315 311 311 314 314 317 316 314 310 311 309 311 312 309 305 304 303 303 302 302 302 302 301 298 295 294 292 292 290 287 285
322 318 319 314 310 312 307 309 311 310 307 304 302 302 304 306 306 305 303 301 300 300 300 300 301 302 302 300 299 296 292 291
315 315 310 310 310 307 310 310 308 306 304 302 302 300 303 302 301 300 300 299 299 299 296 295 296 296 299 301 301 299 298 298
311 312 310 309 307 312 304 308 309 307 304 302 301 300 298 297 300 299 299 298 299 296 294 293 292 294 294 296 297 298 297 298
313 311 311 311 309 311 308 305 305 303 300 301 298 298 299 298 296 297 295 294 295 295 293 291 290 291 291 291 294 295 295 296